Location: Julian California
(33.0790°N, 116.6010°W)
Time: 06:05:14
(UTC-07:00)

COSMOS 2487 - Pass Details

Date: 12 July 2018
Orbit: 451 x 454 km, 74.7° (Epoch: 22 September)

Event Time Altitude Azimuth Distance (km) Brightness Sun altitude
Rises 20:30:14 0° 351° (N) 2,463 6.8 -6.9°
Reaches altitude 10° 20:32:23 10° 358° (N) 1,586 5.7 -7.3°
Maximum altitude 20:35:45 44° 72° (ENE) 628 2.9 -7.9°
Drops below altitude 10° 20:39:04 10° 146° (SE) 1,573 4.6 -8.4°
Enters shadow 20:39:12 - 147° (SSE) 1,627 4.7 -8.5°
